weather.gov     
National Weather Service

Regional Weather Roundup
NWS Homepage
This page is being discontinued on March 12, 2014.
The same data is available at this site. Please update your bookmarks.
Thank you, and we apologize for the inconvenience.
Please send an email to SR-SRH.Webmaster@noaa.gov with any concerns.


Current Version
Previous Version:    01  02  03  04  05  06  07  08  09  10  11  12  13  14  15  16  17  18  19  20  21  22  23  24  25  26  27  28  29  30  
   31  32  33  34  35  36  37  38  39  40  41  42  43  44  45  46  47  48  49  50  51  52  53  54  55  56  57  58  59  60  
[Printable]
393
ASUS44 KLIX 241201
RWRLIX
NEW ORLEANS REGIONAL WEATHER ROUNDUP
NATIONAL WEATHER SERVICE NEW ORLEANS LA
700 AM CDT THU APR 24 2014

NOTE: "FAIR" INDICATES FEW OR NO CLOUDS BELOW 12,000 FEET WITH NO
      SIGNIFICANT WEATHER AND/OR OBSTRUCTIONS TO VISIBILITY.
      SKY/WX - SKY CONDITION AND SIGNIFICANT WEATHER.
      TMP - AIR TEMPERATURE.     DP    - DEWPOINT TEMPERATURE.
      RH  - RELATIVE HUMIDITY.   PRES  - PRESSURE.
      HI  - HEAT INDEX.          WCI   - WIND CHILL INDEX.

*  THESE STATIONS ARE NOT NWS OR FAA STATIONS AND ARE NOT UNDER
   NWS QUALITY CONTROL.

LAZ038-040-048-061>063-065>067-069-241300-
SOUTHEAST LOUISIANA

CITY           SKY/WX    TMP DP  RH WIND       PRES   REMARKS
N.O. AUDUBON     N/A     66  64  93 MISG        N/A
6HR MIN TEMP:  64; 6HR MAX TEMP:  67; 6HR PCP: 16.16;

N.O. INTL ARPT PTCLDY    64  63  96 CALM      29.93R FOG
6HR MIN TEMP:  63; 6HR MAX TEMP:  68;

N.O. LAKEFRONT CLEAR     66  64  93 S3        29.94R FOG
6HR MIN TEMP:  65; 6HR MAX TEMP:  70;

N.O. DOWNTOWN*   N/A     70  63  78 S3        29.94R
6HR MIN TEMP:  68; 6HR MAX TEMP:  72;

SLIDELL        FOG       56  55  97 CALM      29.93R VSB<1/4
6HR MIN TEMP:  56; 6HR MAX TEMP:  64;

BATON ROUGE    CLOUDY    63  60  90 E5        29.92R FOG
6HR MIN TEMP:  60; 6HR MAX TEMP:  68;

BOOTHVILLE     PTCLDY    66  65  96 SE3       29.95R FOG
6HR MIN TEMP:  66; 6HR MAX TEMP:  70;

BELLE CHASSE   FOG       59  57  93 CALM      29.94R VSB 1/2
6HR MIN TEMP:  58; 6HR MAX TEMP:  63;

BOGALUSA*      FOG       59  56  91 CALM      29.95R VSB<1/4
6HR MIN TEMP:  57; 6HR MAX TEMP:  62;

GALLIANO*      NOT AVBL
NEW ROADS*     NOT AVBL
GONZALES*      NOT AVBL
HAMMOND*       NOT AVBL
HOUMA*         PTCLDY    61  57  88 CALM      29.93R FOG
PORT FOURCHON* SUNNY     70  66  88 CALM      29.95R

$$

MSZ070-080>082-241300-
SOUTHERN MISSISSIPPI

CITY           SKY/WX    TMP DP  RH WIND       PRES   REMARKS
MCCOMB         FOG       57  56  96 CALM      29.94R VSB 1/4
6HR MIN TEMP:  55; 6HR MAX TEMP:  64;

GULFPORT       FOG       64  61  90 CALM      29.94R VSB 1/2
6HR MIN TEMP:  62; 6HR MAX TEMP:  70;

BILOXI         CLEAR     64  64 100 N3        29.95R FOG
PASCAGOULA     FOG       60  60 100 CALM      29.95R VSB<1/4
6HR MIN TEMP:  58; 6HR MAX TEMP:  62;

STENNIS ARPT*  FOG       54  52  94 CALM      29.95  VSB 1/4

$$

COASTAL OBSERVATIONS
LAKE AND NEARSHORE STATIONS

STATION/POSITION TIME  TEMP    WIND        PRES    WAVE
                       AIR SEA DIR/SP/G            HT/PER
                 (UTC) (F)     (DEG/KT/KT) (MB)    (FT/S)
PASCAGOULA       1100   67      CALM  /  1 1013.3
WAVELAND YACHT   1100   66 74   CALM  /  1 1012.8
GRAND ISLE       1100   69 72  200/  2/  4 1014.0
SOUTHWEST PASS   1100   67 60  200/  4/  5 1014.5
NEW CANAL        1100   66 70  160/  2/  3 1013.7
SHELL BEACH      1100   68 68  150/  3/  3 1013.3

OFFSHORE STATIONS

STATION/POSITION TIME  TEMP    WIND        PRES    WAVE
                       AIR SEA DIR/SP/G            HT/PER
                 (UTC) (F)     (DEG/KT/KT) (MB)    (FT/S)
64 S DAUPHIN ISL 1055   70 71  200/  2/  4 1014.6

$$





U.S. Dept. of Commerce
NOAA National Weather Service
1325 East West Highway
Silver Spring, MD 20910
E-mail: w-nws.webmaster@noaa.gov
Page last modified: May 16, 2007
NATIONAL WEATHER SERVICE: for Safety, for Work, for Fun - FOR LIFE